Weather History for Louisville Bowman, KY

Change the Weather History Date:

Monday, March 11, 2013

  Actual Average Record
Temperature  
Mean Temperature 47 °F 45 °F  
Max Temperature 55 °F 55 °F 79 °F (1990)
Min Temperature 38 °F 36 °F 17 °F (1998)
Degree Days  
Heating Degree Days 18 20  
Month to date heating degree days 281 235  
Since 1 July heating degree days 3511 3596  
Cooling Degree Days 0 0  
Month to date cooling degree days 0 0  
Year to date cooling degree days 0 0  
Moisture  
Dew Point 44 °F    
Average Humidity 81    
Maximum Humidity 100    
Minimum Humidity 62    
Precipitation  
Precipitation 0.99 in 0.12 in 0.99 in (2013)
Month to date precipitation 1.55 1.25  
Year to date precipitation 8.26 7.81  
Sea Level Pressure  
Sea Level Pressure 29.78 in    
Wind  
Wind Speed 11 mph (SW)    
Max Wind Speed 23 mph    
Max Gust Speed 36 mph    
Visibility 7 miles    
Events Rain    
T = Trace of Precipitation, MM = Missing Value Source: NWS Daily Summary

Daily Weather History Graph

Daily Weather History Graph

Search for Another Location

Airport:

Trip Planner

Search our weather history database for the weather conditions in past years. The results will help you decide how hot, cold, wet, or windy it might be!

Date:

Astronomy

Mar. 11, 2013 Rise Set
Actual Time 7:59 AM EDT 7:46 PM EDT
Civil Twilight 7:33 AM EDT 8:12 PM EDT
Nautical Twilight 7:02 AM EDT 8:43 PM EDT
Astronomical Twilight 6:31 AM EDT 9:14 PM EDT
Moon 7:33 AM EDT (3/11) 7:56 PM EDT (3/11)
Length of Visible Light 12h 39m
Length of Day
11h 46m
Waning Crescent, 0% of the Moon is Illuminated
Mar 11
Waning Crescent
Mar 11
New
Mar 19
First Quarter
Mar 27
Full
Apr 3
Last Quarter

Hourly Weather History & Observations

Time (EDT) Temp. Windchill Dew Point Humidity Pressure Visibility Wind Dir Wind Speed Gust Speed Precip Events Conditions
12:53 AM 54.0 °F - 48.0 °F 80% 29.83 in 10.0 mi SE 3.5 mph - 0.03 in Rain Light Rain
1:53 AM 53.1 °F - 48.0 °F 83% 29.81 in 7.0 mi SE 3.5 mph - 0.02 in Rain Rain
2:53 AM 53.1 °F - 46.9 °F 80% 29.81 in 9.0 mi South 5.8 mph - 0.04 in Rain Light Rain
3:53 AM 53.1 °F - 48.0 °F 83% 29.80 in 6.0 mi South 5.8 mph - 0.03 in Rain Rain
4:53 AM 52.0 °F - 51.1 °F 97% 29.78 in 4.0 mi Calm Calm - 0.14 in Rain Rain
5:53 AM 55.4 °F - 53.6 °F 94% 29.78 in 5.0 mi SSE 5.8 mph - N/A Rain Rain
6:34 AM 55.4 °F - 53.6 °F 94% 29.77 in 4.0 mi South 6.9 mph - 0.10 in Rain Rain
6:53 AM 55.0 °F - 53.1 °F 93% 29.78 in 5.0 mi South 8.1 mph - 0.16 in Rain Light Rain
6:59 AM 55.4 °F - 53.6 °F 94% 29.78 in 4.0 mi South 5.8 mph - 0.02 in Rain Rain
7:16 AM 55.4 °F - 53.6 °F 94% 29.78 in 4.0 mi SSE 4.6 mph - 0.06 in Rain Rain
7:23 AM 55.4 °F - 53.6 °F 94% 29.78 in 4.0 mi South 6.9 mph - 0.08 in Rain Rain
8:16 AM 55.4 °F - 51.8 °F 88% 29.76 in 5.0 mi South 13.8 mph 26.5 mph 0.04 in Rain Rain
8:47 AM 55.4 °F - 51.8 °F 88% 29.74 in 7.0 mi South 12.7 mph 20.7 mph 0.09 in Rain Light Rain
8:53 AM 55.0 °F - 52.0 °F 89% 29.73 in 6.0 mi South 11.5 mph 18.4 mph 0.09 in Rain Light Rain
9:07 AM 53.6 °F - 51.8 °F 94% 29.75 in 10.0 mi SSW 9.2 mph 17.3 mph 0.01 in Rain Light Rain
9:35 AM 53.6 °F - 51.8 °F 94% 29.74 in 10.0 mi South 9.2 mph 17.3 mph 0.01 in Rain Light Rain
9:53 AM 55.0 °F - 51.1 °F 86% 29.73 in 10.0 mi South 11.5 mph 16.1 mph 0.01 in Rain Light Rain
10:35 AM 53.6 °F - 51.8 °F 94% 29.71 in 2.5 mi South 10.4 mph 17.3 mph 0.02 in Rain Light Rain
10:53 AM 54.0 °F - 52.0 °F 93% 29.70 in 1.8 mi South 8.1 mph 18.4 mph 0.05 in Rain Light Rain
10:56 AM 53.6 °F - 51.8 °F 94% 29.70 in 2.0 mi Variable 6.9 mph - 0.00 in Rain Light Rain
11:01 AM 53.6 °F - 51.8 °F 94% 29.70 in 2.0 mi South 11.5 mph 16.1 mph 0.01 in Rain Light Rain
11:23 AM 53.6 °F - 51.8 °F 94% 29.70 in 2.0 mi SW 11.5 mph 17.3 mph 0.04 in Rain Rain
11:38 AM 51.8 °F - 50.0 °F 94% 29.71 in 7.0 mi SW 12.7 mph 19.6 mph 0.06 in Rain Light Rain
11:46 AM 51.8 °F - 50.0 °F 94% 29.70 in 3.0 mi SW 10.4 mph - 0.09 in Rain Rain
11:53 AM 52.0 °F - 50.0 °F 93% 29.70 in 3.0 mi SW 9.2 mph - 0.10 in Rain Light Rain
12:43 PM 48.2 °F - 44.6 °F 87% 29.73 in 2.5 mi WSW 20.7 mph 28.8 mph 0.05 in Rain Light Rain
12:50 PM 48.2 °F - 44.6 °F 87% 29.74 in 4.0 mi WSW 13.8 mph 28.8 mph 0.05 in Rain Light Rain
12:53 PM 48.0 °F - 45.0 °F 89% 29.74 in 5.0 mi WSW 13.8 mph 24.2 mph 0.06 in Rain Light Rain
12:56 PM 48.2 °F - 44.6 °F 87% 29.74 in 5.0 mi WSW 12.7 mph 23.0 mph 0.00 in Rain Light Rain
1:18 PM 48.2 °F - 46.4 °F 93% 29.74 in 7.0 mi WSW 6.9 mph - 0.02 in Rain Light Rain
1:53 PM 46.9 °F - 43.0 °F 86% 29.74 in 4.0 mi WSW 15.0 mph 28.8 mph 0.04 in Rain Light Rain
2:01 PM 46.4 °F 39.8 °F 42.8 °F 87% 29.74 in 4.0 mi WSW 16.1 mph 25.3 mph 0.00 in Rain Light Rain
2:53 PM 46.9 °F - 39.0 °F 74% 29.75 in 10.0 mi SW 17.3 mph 28.8 mph 0.01 in   Overcast
3:40 PM 46.4 °F 41.5 °F 39.2 °F 76% 29.73 in 10.0 mi SW 10.4 mph - N/A   Overcast
3:53 PM 48.0 °F - 39.0 °F 71% 29.72 in 10.0 mi West 12.7 mph 19.6 mph N/A   Overcast
4:53 PM 46.9 °F - 36.0 °F 66% 29.75 in 10.0 mi West 20.7 mph 31.1 mph N/A   Mostly Cloudy
5:53 PM 44.1 °F 35.9 °F 34.0 °F 68% 29.79 in 10.0 mi West 19.6 mph 28.8 mph 0.00 in   Overcast
6:03 PM 42.8 °F 37.0 °F 33.8 °F 70% 29.80 in 10.0 mi WSW 10.4 mph 26.5 mph 0.00 in Rain Light Rain
6:53 PM 44.1 °F 37.7 °F 32.0 °F 63% 29.82 in 10.0 mi WSW 12.7 mph 20.7 mph 0.00 in   Overcast
7:06 PM 41.0 °F 32.8 °F 35.6 °F 81% 29.83 in 9.0 mi West 16.1 mph 25.3 mph 0.00 in Rain Light Rain
7:49 PM 39.2 °F 31.6 °F 35.6 °F 87% 29.86 in 10.0 mi West 12.7 mph 18.4 mph 0.00 in Rain Light Rain
7:53 PM 39.9 °F 32.9 °F 35.1 °F 83% 29.86 in 10.0 mi WSW 11.5 mph - 0.00 in Rain Light Rain
8:53 PM 41.0 °F 35.2 °F 34.0 °F 76% 29.89 in 10.0 mi West 9.2 mph - 0.00 in   Overcast
9:46 PM 39.2 °F 31.6 °F 32.0 °F 75% 29.90 in 10.0 mi West 12.7 mph - N/A   Overcast
9:53 PM 39.9 °F 33.4 °F 32.0 °F 73% 29.91 in 10.0 mi West 10.4 mph 19.6 mph N/A   Overcast
10:12 PM 39.2 °F 33.0 °F 32.0 °F 75% 29.92 in 10.0 mi WSW 9.2 mph 16.1 mph N/A   Overcast
10:46 PM 39.2 °F 32.5 °F 32.0 °F 75% 29.92 in 10.0 mi West 10.4 mph - N/A   Overcast
10:53 PM 39.9 °F 32.9 °F 32.0 °F 73% 29.93 in 10.0 mi WSW 11.5 mph 17.3 mph N/A   Overcast
11:53 PM 39.0 °F 31.0 °F 30.0 °F 70% 29.94 in 10.0 mi West 13.8 mph - N/A   Overcast